Location: Crescent
(42.8242°N, 73.7329°W)
Time: 03:00:13
(UTC+00:00)

Tiros 1 - Pass Details

Date: 19 February 2026
Orbit: 618 x 649 km, 48.4° (Epoch: 13 March)

Event Time Altitude Azimuth Distance (km) Brightness Sun altitude
Rises 18:39:44 0° 295° (WNW) 2,893 10.5 32.2°
Reaches altitude 10° 18:42:05 10° 291° (WNW) 1,982 9.8 32.0°
Maximum altitude 18:46:32 55° 214° (SSW) 746 9.0 31.7°
Drops below altitude 10° 18:50:57 10° 137° (SE) 1,972 9.9 31.3°
Sets 18:53:17 0° 132° (SE) 2,877 10.6 31.0°
